TimeCDT,TemperatureF,Dew PointF,Humidity,Sea Level PressureIn,VisibilityMPH,Wind Direction,Wind SpeedMPH,Gust SpeedMPH,PrecipitationIn,Events,Conditions,WindDirDegrees,DateUTC
12:15 AM,44.6,35.6,71,30.26,10.0,South,8.1,-,N/A,,Clear,170,2013-10-26 05:15:00
12:35 AM,44.6,35.6,71,30.25,10.0,South,5.8,-,N/A,,Clear,180,2013-10-26 05:35:00
12:55 AM,44.6,35.6,71,30.25,10.0,South,4.6,-,N/A,,Clear,180,2013-10-26 05:55:00
1:15 AM,44.6,35.6,71,30.25,10.0,South,5.8,-,N/A,,Clear,190,2013-10-26 06:15:00
1:35 AM,42.8,35.6,76,30.24,10.0,South,4.6,-,N/A,,Clear,180,2013-10-26 06:35:00
1:55 AM,42.8,37.4,81,30.24,10.0,South,3.5,-,N/A,,Clear,170,2013-10-26 06:55:00
2:15 AM,42.8,37.4,81,30.24,10.0,Calm,Calm,-,N/A,,Clear,0,2013-10-26 07:15:00
2:35 AM,42.8,37.4,81,30.23,10.0,Calm,Calm,-,N/A,,Clear,0,2013-10-26 07:35:00
2:55 AM,42.8,37.4,81,30.23,10.0,South,5.8,-,N/A,,Clear,170,2013-10-26 07:55:00
3:15 AM,44.6,37.4,76,30.23,10.0,South,6.9,-,N/A,,Clear,180,2013-10-26 08:15:00
3:35 AM,42.8,37.4,81,30.23,10.0,South,3.5,-,N/A,,Clear,170,2013-10-26 08:35:00
3:55 AM,42.8,37.4,81,30.22,10.0,South,4.6,-,N/A,,Clear,170,2013-10-26 08:55:00
4:15 AM,42.8,37.4,81,30.22,10.0,South,4.6,-,N/A,,Clear,180,2013-10-26 09:15:00
4:35 AM,42.8,37.4,81,30.22,10.0,Calm,Calm,-,N/A,,Clear,0,2013-10-26 09:35:00
4:55 AM,42.8,37.4,81,30.23,10.0,Calm,Calm,-,N/A,,Clear,0,2013-10-26 09:55:00
5:15 AM,42.8,39.2,87,30.23,10.0,Calm,Calm,-,N/A,,Clear,0,2013-10-26 10:15:00
5:35 AM,42.8,39.2,87,30.23,10.0,South,3.5,-,N/A,,Clear,180,2013-10-26 10:35:00
5:55 AM,42.8,39.2,87,30.23,10.0,South,3.5,-,N/A,,Clear,180,2013-10-26 10:55:00
6:15 AM,42.8,37.4,81,30.22,10.0,Calm,Calm,-,N/A,,Clear,0,2013-10-26 11:15:00
6:35 AM,42.8,39.2,87,30.22,10.0,Calm,Calm,-,N/A,,Clear,0,2013-10-26 11:35:00
6:55 AM,42.8,39.2,87,30.22,10.0,SSE,3.5,-,N/A,,Clear,160,2013-10-26 11:55:00
7:15 AM,42.8,39.2,87,30.21,10.0,SSE,3.5,-,N/A,,Clear,160,2013-10-26 12:15:00
7:35 AM,42.8,41.0,93,30.21,10.0,SSE,3.5,-,N/A,,Clear,160,2013-10-26 12:35:00
7:55 AM,42.8,41.0,93,30.21,10.0,South,5.8,-,N/A,,Clear,170,2013-10-26 12:55:00
8:15 AM,44.6,41.0,87,30.21,10.0,South,3.5,-,N/A,,Clear,170,2013-10-26 13:15:00
8:35 AM,44.6,41.0,87,30.21,10.0,SSE,4.6,-,N/A,,Clear,160,2013-10-26 13:35:00
8:55 AM,46.4,41.0,81,30.21,10.0,SSE,5.8,-,N/A,,Clear,160,2013-10-26 13:55:00
9:15 AM,46.4,41.0,81,30.20,10.0,South,5.8,-,N/A,,Clear,170,2013-10-26 14:15:00
9:35 AM,48.2,41.0,76,30.21,10.0,South,6.9,-,N/A,,Clear,180,2013-10-26 14:35:00
9:55 AM,51.8,42.8,71,30.21,10.0,South,9.2,-,N/A,,Clear,190,2013-10-26 14:55:00
10:15 AM,51.8,42.8,71,30.21,10.0,SSW,9.2,-,N/A,,Clear,200,2013-10-26 15:15:00
10:35 AM,51.8,42.8,71,30.21,10.0,SSW,8.1,-,N/A,,Clear,200,2013-10-26 15:35:00
10:55 AM,53.6,44.6,72,30.21,10.0,SSW,9.2,-,N/A,,Clear,210,2013-10-26 15:55:00
11:15 AM,55.4,44.6,67,30.20,10.0,SW,11.5,-,N/A,,Clear,220,2013-10-26 16:15:00
11:35 AM,57.2,46.4,67,30.20,10.0,SSW,11.5,16.1,N/A,,Clear,210,2013-10-26 16:35:00
11:55 AM,57.2,46.4,67,30.20,10.0,SW,10.4,-,N/A,,Clear,220,2013-10-26 16:55:00
12:15 PM,59.0,46.4,63,30.20,10.0,SW,8.1,-,N/A,,Clear,220,2013-10-26 17:15:00
12:35 PM,59.0,48.2,67,30.20,10.0,SW,8.1,-,N/A,,Clear,220,2013-10-26 17:35:00
12:55 PM,59.0,50.0,72,30.19,10.0,SW,6.9,-,N/A,,Clear,230,2013-10-26 17:55:00
1:15 PM,60.8,50.0,68,30.18,10.0,SSW,4.6,-,N/A,,Clear,210,2013-10-26 18:15:00
1:35 PM,60.8,51.8,72,30.17,10.0,SW,4.6,-,N/A,,Clear,230,2013-10-26 18:35:00
1:55 PM,62.6,51.8,68,30.16,10.0,SW,4.6,-,N/A,,Clear,230,2013-10-26 18:55:00
2:15 PM,62.6,51.8,68,30.16,10.0,WSW,4.6,-,N/A,,Clear,250,2013-10-26 19:15:00
2:35 PM,62.6,51.8,68,30.15,10.0,SW,3.5,-,N/A,,Scattered Clouds,220,2013-10-26 19:35:00
2:55 PM,62.6,51.8,68,30.15,10.0,Calm,Calm,-,N/A,,Mostly Cloudy,0,2013-10-26 19:55:00
3:15 PM,62.6,51.8,68,30.15,10.0,NW,5.8,-,N/A,,Mostly Cloudy,310,2013-10-26 20:15:00
3:35 PM,62.6,51.8,68,30.14,10.0,North,6.9,-,N/A,,Scattered Clouds,350,2013-10-26 20:35:00
3:55 PM,62.6,51.8,68,30.15,10.0,Calm,Calm,-,N/A,,Scattered Clouds,0,2013-10-26 20:55:00
4:15 PM,62.6,51.8,68,30.14,10.0,Calm,Calm,-,N/A,,Scattered Clouds,0,2013-10-26 21:15:00
4:35 PM,62.6,51.8,68,30.14,10.0,SW,4.6,-,N/A,,Scattered Clouds,220,2013-10-26 21:35:00
4:55 PM,62.6,51.8,68,30.14,10.0,SSW,4.6,-,N/A,,Scattered Clouds,210,2013-10-26 21:55:00
5:15 PM,60.8,51.8,72,30.14,10.0,SSW,6.9,-,N/A,,Scattered Clouds,200,2013-10-26 22:15:00
5:35 PM,60.8,51.8,72,30.13,10.0,South,5.8,-,N/A,,Scattered Clouds,190,2013-10-26 22:35:00
5:55 PM,60.8,51.8,72,30.13,10.0,Calm,Calm,-,N/A,,Scattered Clouds,0,2013-10-26 22:55:00
6:15 PM,60.8,51.8,72,30.13,10.0,Calm,Calm,-,N/A,,Scattered Clouds,0,2013-10-26 23:15:00
6:35 PM,59.0,51.8,77,30.13,10.0,Calm,Calm,-,N/A,,Clear,0,2013-10-26 23:35:00
6:55 PM,55.4,51.8,88,30.14,10.0,Calm,Calm,-,N/A,,Clear,0,2013-10-26 23:55:00
7:15 PM,55.4,50.0,82,30.14,10.0,Calm,Calm,-,N/A,,Clear,0,2013-10-27 00:15:00
7:35 PM,53.6,50.0,88,30.15,10.0,Calm,Calm,-,N/A,,Mostly Cloudy,0,2013-10-27 00:35:00
7:55 PM,53.6,51.8,94,30.15,10.0,NNE,3.5,-,N/A,,Overcast,30,2013-10-27 00:55:00
8:15 PM,55.4,51.8,88,30.15,10.0,Calm,Calm,-,N/A,,Overcast,0,2013-10-27 01:15:00
8:35 PM,57.2,51.8,82,30.15,10.0,Calm,Calm,-,N/A,,Mostly Cloudy,0,2013-10-27 01:35:00
8:55 PM,55.4,51.8,88,30.15,10.0,Calm,Calm,-,N/A,,Overcast,0,2013-10-27 01:55:00
9:15 PM,55.4,51.8,88,30.15,10.0,Calm,Calm,-,N/A,,Scattered Clouds,0,2013-10-27 02:15:00
9:35 PM,55.4,51.8,88,30.16,10.0,Calm,Calm,-,N/A,,Scattered Clouds,0,2013-10-27 02:35:00
9:55 PM,53.6,50.0,88,30.16,10.0,Calm,Calm,-,N/A,,Scattered Clouds,0,2013-10-27 02:55:00
10:15 PM,53.6,51.8,94,30.16,10.0,Calm,Calm,-,N/A,,Clear,0,2013-10-27 03:15:00
10:35 PM,51.8,50.0,94,30.16,7.0,NE,4.6,-,N/A,,Clear,40,2013-10-27 03:35:00
10:55 PM,50.0,48.2,94,30.16,7.0,Calm,Calm,-,N/A,,Clear,0,2013-10-27 03:55:00
11:15 PM,50.0,50.0,100,30.16,7.0,Calm,Calm,-,N/A,,Clear,0,2013-10-27 04:15:00
11:35 PM,50.0,48.2,94,30.17,5.0,Calm,Calm,-,N/A,,Clear,0,2013-10-27 04:35:00
11:55 PM,50.0,50.0,100,30.17,7.0,Calm,Calm,-,N/A,,Scattered Clouds,0,2013-10-27 04:55:00